FW3619 Weather Reports


time (UTC)temp
F
wind
direction
speed
knots
gust
knots
rain 1hr
in
rain 24hr
in
rain mn
in
humidity
%
barometer
mb
20260504173508 71 226 0.9 18.2 0.00 0.00 0.00 40 1011.5
20260504173005 71 193 7.0 10.4 0.00 0.00 0.00 37 1011.5
20260504172501 71 186 5.2 13.0 0.00 0.00 0.00 37 1011.5
20260504171957 70 203 4.3 10.4 0.00 0.00 0.00 37 1011.4
20260504171455 70 154 5.2 18.2 0.00 0.00 0.00 38 1011.5
20260504170951 69 284 6.1 12.2 0.00 0.00 0.00 38 1011.7
20260504170448 69 256 5.2 14.8 0.00 0.00 0.00 37 1011.5
20260504160408 68 158 4.3 8.7 0.00 0.00 0.00 39 1012.7
20260504150831 65 184 2.6 10.4 0.00 0.00 0.00 44 1013.4
20260504150328 65 225 6.1 10.4 0.00 0.00 0.00 42 1013.3
20260504141258 62 229 3.5 13.0 0.00 0.00 0.00 46 1013.9
20260504140755 62 260 6.1 12.2 0.00 0.00 0.00 47 1013.9
20260504140250 62 197 4.3 13.0 0.00 0.00 0.00 47 1013.8
20260504130719 57 128 1.7 2.6 0.00 0.00 0.00 55 1014.3
20260504130215 57 114 0.9 4.3 0.00 0.00 0.00 56 1014.2
20260504120139 52 115 1.7 1.7 0.00 0.00 0.00 62 1015.0
20260504110606 44 96 0.0 0.0 0.00 0.00 0.00 84 1014.9
20260504100528 37 95 0.0 1.7 0.00 0.00 0.00 92 1014.7
20260504081921 41 95 0.9 1.7 0.00 0.00 0.00 86 1014.6
20260504081418 41 95 1.7 1.7 0.00 0.00 0.00 85 1014.7
20260504080914 41 95 0.0 0.0 0.00 0.00 0.00 84 1014.5
20260504080411 41 95 0.0 0.0 0.00 0.00 0.00 86 1014.6
20260504070338 44 117 0.0 1.7 0.00 0.00 0.00 74 1014.4
20260504050715 40 60 0.0 0.0 0.00 0.00 0.00 89 1014.8
20260504050212 40 60 1.7 1.7 0.00 0.00 0.00 90 1014.6
20260504045709 41 60 0.0 0.0 0.00 0.00 0.00 89 1014.9
20260504045204 41 60 0.0 0.0 0.00 0.00 0.00 86 1015.0
20260504044702 40 60 0.0 0.0 0.00 0.00 0.00 84 1014.8
20260504044159 40 60 0.0 0.0 0.00 0.00 0.00 83 1014.7
20260504043656 40 60 0.0 0.0 0.00 0.00 0.00 84 1014.7
20260504043153 39 60 0.0 1.7 0.00 0.00 0.00 88 1014.6
20260504042650 39 60 0.9 1.7 0.00 0.00 0.00 90 1014.6
20260504042147 39 60 0.0 0.0 0.00 0.00 0.00 90 1014.7
20260504041642 39 60 0.0 1.7 0.00 0.00 0.00 90 1014.7
20260504041138 39 60 1.7 1.7 0.00 0.00 0.00 90 1014.5
20260504040636 39 60 1.7 1.7 0.00 0.00 0.00 90 1014.6
20260504040133 39 60 0.0 1.7 0.00 0.00 0.00 89 1014.6
20260504035629 38 59 1.7 1.7 0.00 0.00 0.00 88 1014.5
20260504035126 38 60 0.0 0.0 0.00 0.00 0.00 89 1014.8
20260504034624 38 60 0.9 1.7 0.00 0.00 0.00 87 1014.6
20260504034121 38 60 0.0 0.0 0.00 0.00 0.00 86 1014.6
20260504033618 38 60 1.7 1.7 0.00 0.00 0.00 86 1014.4
20260504033116 39 60 0.9 1.7 0.00 0.00 0.00 87 1014.4
20260504032612 39 60 1.7 1.7 0.00 0.00 0.00 87 1014.5
20260504032109 39 60 0.0 0.0 0.00 0.00 0.00 84 1014.3
20260504031607 40 60 0.0 0.0 0.00 0.00 0.00 84 1014.4
20260504031103 40 64 0.0 0.0 0.00 0.00 0.00 83 1014.4
20260504030600 39 64 0.0 0.0 0.00 0.00 0.00 81 1014.5
20260504030056 39 64 0.0 1.7 0.00 0.00 0.00 83 1014.3
20260504025553 39 64 0.0 0.0 0.00 0.00 0.00 82 1014.3
20260504025050 39 63 2.6 2.6 0.00 0.00 0.00 84 1014.2
20260504024547 40 64 0.0 0.0 0.00 0.00 0.00 82 1014.4
20260504024044 40 64 0.0 1.7 0.00 0.00 0.00 79 1014.3
20260504023540 41 64 0.0 0.0 0.00 0.00 0.00 78 1014.4
20260504023036 41 64 0.0 1.7 0.00 0.00 0.00 74 1014.4
20260504022532 42 63 0.9 1.7 0.00 0.00 0.00 72 1014.2
20260504022029 44 78 0.0 1.7 0.00 0.00 0.00 66 1014.2
20260504021526 47 60 0.9 4.3 0.00 0.00 0.00 66 1014.2
20260504021023 49 136 2.6 2.6 0.00 0.00 0.00 51 1014.0
20260504020520 49 119 0.9 1.7 0.00 0.00 0.00 52 1013.9
20260504020017 50 139 1.7 2.6 0.00 0.00 0.00 49 1014.0
20260504015513 50 120 0.9 1.7 0.00 0.00 0.00 49 1014.1
20260504015009 49 172 2.6 2.6 0.00 0.00 0.00 48 1014.1
20260504014505 48 160 3.5 4.3 0.00 0.00 0.00 51 1013.9
20260504014003 48 91 0.0 2.6 0.00 0.00 0.00 53 1013.9
20260504013501 48 97 0.0 1.7 0.00 0.00 0.00 51 1013.7
20260504012956 48 192 0.9 2.6 0.00 0.00 0.00 50 1013.6
20260504012455 48 114 0.9 2.6 0.00 0.00 0.00 53 1013.8
20260504011952 47 120 0.0 1.7 0.00 0.00 0.00 52 1013.6
20260504011448 46 114 0.0 0.0 0.00 0.00 0.00 51 1013.6
20260504010944 46 124 1.7 4.3 0.00 0.00 0.00 56 1013.5
20260504010440 46 121 1.7 1.7 0.00 0.00 0.00 57 1013.6
20260504005936 47 120 0.0 0.0 0.00 0.00 0.00 60 1013.5
20260504005434 47 152 1.7 2.6 0.00 0.00 0.00 54 1013.1
20260504004931 47 105 0.0 4.3 0.00 0.00 0.00 54 1013.4
20260504004429 47 97 0.0 0.0 0.00 0.00 0.00 55 1013.0
20260504003925 48 95 0.0 1.7 0.00 0.00 0.00 52 1012.8
20260504003422 48 120 0.0 0.0 0.00 0.00 0.00 49 1013.0
20260504002918 49 120 0.0 1.7 0.00 0.00 0.00 47 1013.0
20260504002415 49 120 0.0 1.7 0.00 0.00 0.00 47 1012.8
20260504001913 49 120 0.9 1.7 0.00 0.00 0.00 49 1012.8
20260504001410 49 110 0.0 1.7 0.00 0.00 0.00 49 1012.8
20260504000906 49 109 0.0 0.0 0.00 0.00 0.00 50 1012.6
20260504000404 49 111 0.0 0.0 0.00 0.00 0.00 54 1012.5
20260503235901 49 125 0.0 0.0 0.00 0.00 0.00 54 1012.5
20260503235359 50 126 0.0 1.7 0.00 0.00 0.00 53 1012.3
20260503234856 50 125 0.0 1.7 0.00 0.00 0.00 54 1012.5
20260503234354 51 126 0.0 1.7 0.00 0.00 0.00 54 1012.3
20260503233851 51 71 0.0 0.0 0.00 0.00 0.00 50 1012.5
20260503233347 51 71 0.0 0.0 0.00 0.00 0.00 50 1012.5
20260503232844 51 71 1.7 2.6 0.00 0.00 0.00 50 1012.3
20260503232341 52 64 1.7 2.6 0.00 0.00 0.00 53 1012.3
20260503231839 52 33 2.6 4.3 0.00 0.00 0.00 50 1012.3
20260503231335 53 81 0.0 0.0 0.00 0.00 0.00 48 1012.5
20260503230826 53 353 4.3 4.3 0.00 0.00 0.00 48 1012.2
20260503230323 53 8 7.8 8.7 0.00 0.00 0.00 48 1012.3
20260503225821 53 17 2.6 4.3 0.00 0.00 0.00 51 1012.3
20260503225316 53 356 4.3 8.7 0.00 0.00 0.00 47 1012.5
20260503224813 53 344 9.6 12.2 0.00 0.00 0.00 45 1012.5
20260503224310 54 336 7.0 10.4 0.00 0.00 0.00 46 1012.2
20260503223808 54 354 8.7 12.2 0.00 0.00 0.00 45 1012.2
20260503223305 54 77 2.6 10.4 0.00 0.00 0.00 48 1012.1
20260503222801 54 353 10.4 12.2 0.00 0.00 0.00 45 1012.6
20260503222300 54 315 9.6 12.2 0.00 0.00 0.00 45 1012.1
20260503221757 54 333 7.8 13.0 0.00 0.00 0.00 48 1012.2
20260503221255 54 326 7.0 8.7 0.00 0.00 0.00 47 1012.2
20260503220751 53 343 5.2 13.0 0.00 0.00 0.00 47 1012.1
20260503220248 53 113 0.9 12.2 0.00 0.00 0.00 46 1012.3
20260503215745 54 187 3.5 18.2 0.00 0.00 0.00 46 1012.3
20260503215242 52 106 0.0 4.3 0.00 0.00 0.00 49 1012.2
20260503214740 53 171 0.9 2.6 0.00 0.00 0.00 47 1012.6
20260503214237 53 52 1.7 2.6 0.00 0.00 0.00 48 1012.5
20260503213735 53 105 0.9 7.8 0.00 0.00 0.00 47 1012.0
20260503213232 53 55 1.7 10.4 0.00 0.00 0.00 48 1012.2
20260503212729 54 166 2.6 26.9 0.00 0.00 0.00 43 1012.2
20260503212226 54 310 2.6 20.9 0.00 0.00 0.00 46 1012.5
20260503211724 54 343 17.4 26.9 0.00 0.00 0.00 46 1012.2
20260503211220 54 348 14.8 19.1 0.00 0.00 0.00 44 1012.2
20260503210715 53 345 4.3 13.0 0.00 0.00 0.00 49 1012.1
20260503210213 53 326 3.5 14.8 0.00 0.00 0.00 47 1012.1
20260503205708 53 323 11.3 14.8 0.00 0.00 0.00 47 1011.9
20260503205205 53 329 10.4 20.9 0.00 0.00 0.00 44 1011.8
20260503204701 53 326 8.7 20.9 0.00 0.00 0.00 46 1012.0
20260503204159 53 308 7.0 19.1 0.00 0.00 0.00 49 1012.1
20260503203656 53 301 16.5 20.9 0.00 0.00 0.00 46 1011.9
20260503203154 53 335 8.7 19.1 0.00 0.00 0.00 49 1012.0
20260503202650 52 351 11.3 16.5 0.00 0.00 0.00 45 1011.9
20260503202148 52 341 11.3 16.5 0.00 0.00 0.00 46 1012.0
20260503201646 52 316 11.3 25.2 0.00 0.00 0.00 46 1011.8
20260503201143 53 353 18.2 23.5 0.00 0.00 0.00 45 1011.8
20260503200639 52 316 3.5 16.5 0.00 0.00 0.00 48 1012.1
20260503200136 52 322 20.0 25.2 0.00 0.00 0.00 45 1011.9
20260503195633 52 335 20.0 25.2 0.00 0.00 0.00 44 1012.0
20260503195130 52 325 13.9 25.2 0.00 0.00 0.00 44 1011.9
20260503194627 52 7 14.8 22.6 0.00 0.00 0.00 47 1011.9
20260503194122 52 326 11.3 13.0 0.00 0.00 0.00 50 1011.9
20260503193620 53 345 13.9 19.1 0.00 0.00 0.00 47 1011.8
20260503193114 52 359 17.4 23.5 0.00 0.00 0.00 45 1011.8
20260503192611 52 336 18.2 23.5 0.00 0.00 0.00 46 1011.9
20260503192106 52 300 16.5 23.5 0.00 0.00 0.00 48 1012.0
20260503191604 52 334 16.5 26.9 0.00 0.00 0.00 47 1011.9
20260503191100 52 354 19.1 26.9 0.00 0.00 0.00 44 1011.8
20260503190557 52 329 10.4 14.8 0.00 0.00 0.00 48 1011.9
20260503190054 52 298 5.2 20.9 0.00 0.00 0.00 46 1011.8
20260503185551 52 281 10.4 20.9 0.00 0.00 0.00 49 1011.7
20260503185050 52 312 8.7 13.0 0.00 0.00 0.00 48 1011.9
20260503184546 52 29 17.4 19.1 0.00 0.00 0.00 46 1011.9
20260503184043 52 274 3.5 20.9 0.00 0.00 0.00 47 1012.0
20260503183540 52 318 2.6 16.5 0.00 0.00 0.00 48 1011.9
20260503183037 52 55 3.5 20.9 0.00 0.00 0.00 48 1011.7
20260503182536 53 339 10.4 18.2 0.00 0.00 0.00 51 1012.1
20260503182033 52 44 1.7 2.6 0.00 0.00 0.00 51 1011.9
20260503181530 54 317 11.3 18.2 0.00 0.00 0.00 51 1012.0
20260503181026 55 290 8.7 13.0 0.00 0.00 0.00 49 1011.9
20260503180524 55 13 4.3 10.4 0.00 0.00 0.00 50 1011.9
20260503180021 53 161 2.6 7.8 0.00 0.00 0.00 48 1012.0
20260503175518 53 324 13.0 23.5 0.00 0.00 0.00 50 1012.0
20260503175015 52 327 13.0 26.9 0.00 0.00 0.00 49 1012.1
20260503174513 53 350 14.8 22.6 0.00 0.00 0.00 51 1012.0
20260503174008 52 47 6.1 12.2 0.00 0.00 0.00 47 1011.7